Index of /20260508/WXO-DD/model_rdps/10km/12/024
Name Last modified Size Description
Parent Directory -
20260508T12Z_MSC_RDPS_AbsoluteVorticity_IsbL-0250_RLatLon0.09_PT024H.grib2 2026-05-08 14:49 606K
20260508T12Z_MSC_RDPS_AbsoluteVorticity_IsbL-0500_RLatLon0.09_PT024H.grib2 2026-05-08 14:49 567K
20260508T12Z_MSC_RDPS_AbsoluteVorticity_IsbL-0700_RLatLon0.09_PT024H.grib2 2026-05-08 14:49 623K
20260508T12Z_MSC_RDPS_AbsoluteVorticity_IsbL-0850_RLatLon0.09_PT024H.grib2 2026-05-08 14:49 798K
20260508T12Z_MSC_RDPS_AirTemp_AGL-120m_RLatLon0.09_PT024H.grib2 2026-05-08 14:49 380K
20260508T12Z_MSC_RDPS_AirTemp_AGL-2m_RLatLon0.09_PT024H.grib2 2026-05-08 14:49 625K
20260508T12Z_MSC_RDPS_AirTemp_AGL-40m_RLatLon0.09_PT024H.grib2 2026-05-08 14:49 396K
20260508T12Z_MSC_RDPS_AirTemp_AGL-80m_RLatLon0.09_PT024H.grib2 2026-05-08 14:49 387K
20260508T12Z_MSC_RDPS_AirTemp_IsbL-0001_RLatLon0.09_PT024H.grib2 2026-05-08 14:49 235K
20260508T12Z_MSC_RDPS_AirTemp_IsbL-0005_RLatLon0.09_PT024H.grib2 2026-05-08 14:49 377K
20260508T12Z_MSC_RDPS_AirTemp_IsbL-0010_RLatLon0.09_PT024H.grib2 2026-05-08 14:49 391K
20260508T12Z_MSC_RDPS_AirTemp_IsbL-0020_RLatLon0.09_PT024H.grib2 2026-05-08 14:49 314K
20260508T12Z_MSC_RDPS_AirTemp_IsbL-0030_RLatLon0.09_PT024H.grib2 2026-05-08 14:49 336K
20260508T12Z_MSC_RDPS_AirTemp_IsbL-0050_RLatLon0.09_PT024H.grib2 2026-05-08 14:49 311K
20260508T12Z_MSC_RDPS_AirTemp_IsbL-0100_RLatLon0.09_PT024H.grib2 2026-05-08 14:49 428K
20260508T12Z_MSC_RDPS_AirTemp_IsbL-0150_RLatLon0.09_PT024H.grib2 2026-05-08 14:49 413K
20260508T12Z_MSC_RDPS_AirTemp_IsbL-0175_RLatLon0.09_PT024H.grib2 2026-05-08 14:49 407K
20260508T12Z_MSC_RDPS_AirTemp_IsbL-0200_RLatLon0.09_PT024H.grib2 2026-05-08 14:49 413K
20260508T12Z_MSC_RDPS_AirTemp_IsbL-0225_RLatLon0.09_PT024H.grib2 2026-05-08 14:49 414K
20260508T12Z_MSC_RDPS_AirTemp_IsbL-0250_RLatLon0.09_PT024H.grib2 2026-05-08 14:49 424K
20260508T12Z_MSC_RDPS_AirTemp_IsbL-0275_RLatLon0.09_PT024H.grib2 2026-05-08 14:49 404K
20260508T12Z_MSC_RDPS_AirTemp_IsbL-0300_RLatLon0.09_PT024H.grib2 2026-05-08 14:49 435K
20260508T12Z_MSC_RDPS_AirTemp_IsbL-0350_RLatLon0.09_PT024H.grib2 2026-05-08 14:49 421K
20260508T12Z_MSC_RDPS_AirTemp_IsbL-0400_RLatLon0.09_PT024H.grib2 2026-05-08 14:49 423K
20260508T12Z_MSC_RDPS_AirTemp_IsbL-0450_RLatLon0.09_PT024H.grib2 2026-05-08 14:49 430K
20260508T12Z_MSC_RDPS_AirTemp_IsbL-0500_RLatLon0.09_PT024H.grib2 2026-05-08 14:49 442K
20260508T12Z_MSC_RDPS_AirTemp_IsbL-0550_RLatLon0.09_PT024H.grib2 2026-05-08 14:49 461K
20260508T12Z_MSC_RDPS_AirTemp_IsbL-0600_RLatLon0.09_PT024H.grib2 2026-05-08 14:49 480K
20260508T12Z_MSC_RDPS_AirTemp_IsbL-0650_RLatLon0.09_PT024H.grib2 2026-05-08 14:49 495K
20260508T12Z_MSC_RDPS_AirTemp_IsbL-0700_RLatLon0.09_PT024H.grib2 2026-05-08 14:49 522K
20260508T12Z_MSC_RDPS_AirTemp_IsbL-0750_RLatLon0.09_PT024H.grib2 2026-05-08 14:49 529K
20260508T12Z_MSC_RDPS_AirTemp_IsbL-0800_RLatLon0.09_PT024H.grib2 2026-05-08 14:49 586K
20260508T12Z_MSC_RDPS_AirTemp_IsbL-0850_RLatLon0.09_PT024H.grib2 2026-05-08 14:49 639K
20260508T12Z_MSC_RDPS_AirTemp_IsbL-0875_RLatLon0.09_PT024H.grib2 2026-05-08 14:49 656K
20260508T12Z_MSC_RDPS_AirTemp_IsbL-0900_RLatLon0.09_PT024H.grib2 2026-05-08 14:49 662K
20260508T12Z_MSC_RDPS_AirTemp_IsbL-0925_RLatLon0.09_PT024H.grib2 2026-05-08 14:49 531K
20260508T12Z_MSC_RDPS_AirTemp_IsbL-0950_RLatLon0.09_PT024H.grib2 2026-05-08 14:49 533K
20260508T12Z_MSC_RDPS_AirTemp_IsbL-0970_RLatLon0.09_PT024H.grib2 2026-05-08 14:49 524K
20260508T12Z_MSC_RDPS_AirTemp_IsbL-0985_RLatLon0.09_PT024H.grib2 2026-05-08 14:49 507K
20260508T12Z_MSC_RDPS_AirTemp_IsbL-1000_RLatLon0.09_PT024H.grib2 2026-05-08 14:49 495K
20260508T12Z_MSC_RDPS_AirTemp_IsbL-1015_RLatLon0.09_PT024H.grib2 2026-05-08 14:49 495K
20260508T12Z_MSC_RDPS_Albedo_Sfc_RLatLon0.09_PT024H.grib2 2026-05-08 14:49 151K
20260508T12Z_MSC_RDPS_CAPE_Sfc_RLatLon0.09_PT024H.grib2 2026-05-08 14:49 1.7M
20260508T12Z_MSC_RDPS_CIN_Sfc_RLatLon0.09_PT024H.grib2 2026-05-08 14:49 1.2M
20260508T12Z_MSC_RDPS_CloudWater_EAtm_RLatLon0.09_PT024H.grib2 2026-05-08 14:49 226K
20260508T12Z_MSC_RDPS_ConvectivePrecip-Accum_Sfc_RLatLon0.09_PT024H.grib2 2026-05-08 14:49 868K
20260508T12Z_MSC_RDPS_DewPointDepression_AGL-2m_RLatLon0.09_PT024H.grib2 2026-05-08 14:49 403K
20260508T12Z_MSC_RDPS_DewPointDepression_IsbL-0001_RLatLon0.09_PT024H.grib2 2026-05-08 14:49 193
20260508T12Z_MSC_RDPS_DewPointDepression_IsbL-0005_RLatLon0.09_PT024H.grib2 2026-05-08 14:49 193
20260508T12Z_MSC_RDPS_DewPointDepression_IsbL-0010_RLatLon0.09_PT024H.grib2 2026-05-08 14:49 193
20260508T12Z_MSC_RDPS_DewPointDepression_IsbL-0020_RLatLon0.09_PT024H.grib2 2026-05-08 14:49 193
20260508T12Z_MSC_RDPS_DewPointDepression_IsbL-0030_RLatLon0.09_PT024H.grib2 2026-05-08 14:49 193
20260508T12Z_MSC_RDPS_DewPointDepression_IsbL-0050_RLatLon0.09_PT024H.grib2 2026-05-08 14:49 82K
20260508T12Z_MSC_RDPS_DewPointDepression_IsbL-0100_RLatLon0.09_PT024H.grib2 2026-05-08 14:49 116K
20260508T12Z_MSC_RDPS_DewPointDepression_IsbL-0150_RLatLon0.09_PT024H.grib2 2026-05-08 14:49 144K
20260508T12Z_MSC_RDPS_DewPointDepression_IsbL-0175_RLatLon0.09_PT024H.grib2 2026-05-08 14:49 173K
20260508T12Z_MSC_RDPS_DewPointDepression_IsbL-0200_RLatLon0.09_PT024H.grib2 2026-05-08 14:49 215K
20260508T12Z_MSC_RDPS_DewPointDepression_IsbL-0225_RLatLon0.09_PT024H.grib2 2026-05-08 14:49 258K
20260508T12Z_MSC_RDPS_DewPointDepression_IsbL-0250_RLatLon0.09_PT024H.grib2 2026-05-08 14:49 302K
20260508T12Z_MSC_RDPS_DewPointDepression_IsbL-0275_RLatLon0.09_PT024H.grib2 2026-05-08 14:49 308K
20260508T12Z_MSC_RDPS_DewPointDepression_IsbL-0300_RLatLon0.09_PT024H.grib2 2026-05-08 14:49 318K
20260508T12Z_MSC_RDPS_DewPointDepression_IsbL-0350_RLatLon0.09_PT024H.grib2 2026-05-08 14:49 319K
20260508T12Z_MSC_RDPS_DewPointDepression_IsbL-0400_RLatLon0.09_PT024H.grib2 2026-05-08 14:49 329K
20260508T12Z_MSC_RDPS_DewPointDepression_IsbL-0450_RLatLon0.09_PT024H.grib2 2026-05-08 14:49 331K
20260508T12Z_MSC_RDPS_DewPointDepression_IsbL-0500_RLatLon0.09_PT024H.grib2 2026-05-08 14:49 334K
20260508T12Z_MSC_RDPS_DewPointDepression_IsbL-0550_RLatLon0.09_PT024H.grib2 2026-05-08 14:49 346K
20260508T12Z_MSC_RDPS_DewPointDepression_IsbL-0600_RLatLon0.09_PT024H.grib2 2026-05-08 14:49 366K
20260508T12Z_MSC_RDPS_DewPointDepression_IsbL-0650_RLatLon0.09_PT024H.grib2 2026-05-08 14:49 374K
20260508T12Z_MSC_RDPS_DewPointDepression_IsbL-0700_RLatLon0.09_PT024H.grib2 2026-05-08 14:49 385K
20260508T12Z_MSC_RDPS_DewPointDepression_IsbL-0750_RLatLon0.09_PT024H.grib2 2026-05-08 14:49 406K
20260508T12Z_MSC_RDPS_DewPointDepression_IsbL-0800_RLatLon0.09_PT024H.grib2 2026-05-08 14:49 451K
20260508T12Z_MSC_RDPS_DewPointDepression_IsbL-0850_RLatLon0.09_PT024H.grib2 2026-05-08 14:49 480K
20260508T12Z_MSC_RDPS_DewPointDepression_IsbL-0875_RLatLon0.09_PT024H.grib2 2026-05-08 14:49 474K
20260508T12Z_MSC_RDPS_DewPointDepression_IsbL-0900_RLatLon0.09_PT024H.grib2 2026-05-08 14:49 459K
20260508T12Z_MSC_RDPS_DewPointDepression_IsbL-0925_RLatLon0.09_PT024H.grib2 2026-05-08 14:49 447K
20260508T12Z_MSC_RDPS_DewPointDepression_IsbL-0950_RLatLon0.09_PT024H.grib2 2026-05-08 14:49 438K
20260508T12Z_MSC_RDPS_DewPointDepression_IsbL-0970_RLatLon0.09_PT024H.grib2 2026-05-08 14:49 432K
20260508T12Z_MSC_RDPS_DewPointDepression_IsbL-0985_RLatLon0.09_PT024H.grib2 2026-05-08 14:49 426K
20260508T12Z_MSC_RDPS_DewPointDepression_IsbL-1000_RLatLon0.09_PT024H.grib2 2026-05-08 14:49 424K
20260508T12Z_MSC_RDPS_DewPointDepression_IsbL-1015_RLatLon0.09_PT024H.grib2 2026-05-08 14:49 416K
20260508T12Z_MSC_RDPS_DewPoint_AGL-2m_RLatLon0.09_PT024H.grib2 2026-05-08 14:49 394K
20260508T12Z_MSC_RDPS_DownwardLongwaveRadiationFlux-Accum_Sfc_RLatLon0.09_PT024H.grib2 2026-05-08 14:49 438K
20260508T12Z_MSC_RDPS_DownwardShortwaveRadiationFlux-Accum_NTAtm_RLatLon0.09_PT024H.grib2 2026-05-08 14:49 143K
20260508T12Z_MSC_RDPS_DownwardShortwaveRadiationFlux-Accum_Sfc_RLatLon0.09_PT024H.grib2 2026-05-08 14:49 648K
20260508T12Z_MSC_RDPS_FreezingRain-Accum12h_Sfc_RLatLon0.09_PT024H.grib2 2026-05-08 14:49 83K
20260508T12Z_MSC_RDPS_FreezingRain-Accum1h_Sfc_RLatLon0.09_PT024H.grib2 2026-05-08 14:49 25K
20260508T12Z_MSC_RDPS_FreezingRain-Accum24h_Sfc_RLatLon0.09_PT024H.grib2 2026-05-08 14:49 101K
20260508T12Z_MSC_RDPS_FreezingRain-Accum3h_Sfc_RLatLon0.09_PT024H.grib2 2026-05-08 14:49 32K
20260508T12Z_MSC_RDPS_FreezingRain-Accum6h_Sfc_RLatLon0.09_PT024H.grib2 2026-05-08 14:49 65K
20260508T12Z_MSC_RDPS_FreezingRain-Accum_Sfc_RLatLon0.09_PT024H.grib2 2026-05-08 14:49 127K
20260508T12Z_MSC_RDPS_GeopotentialHeight_IsbL-0001_RLatLon0.09_PT024H.grib2 2026-05-08 14:49 241K
20260508T12Z_MSC_RDPS_GeopotentialHeight_IsbL-0005_RLatLon0.09_PT024H.grib2 2026-05-08 14:49 339K
20260508T12Z_MSC_RDPS_GeopotentialHeight_IsbL-0010_RLatLon0.09_PT024H.grib2 2026-05-08 14:49 308K
20260508T12Z_MSC_RDPS_GeopotentialHeight_IsbL-0020_RLatLon0.09_PT024H.grib2 2026-05-08 14:49 307K
20260508T12Z_MSC_RDPS_GeopotentialHeight_IsbL-0030_RLatLon0.09_PT024H.grib2 2026-05-08 14:49 307K
20260508T12Z_MSC_RDPS_GeopotentialHeight_IsbL-0050_RLatLon0.09_PT024H.grib2 2026-05-08 14:49 310K
20260508T12Z_MSC_RDPS_GeopotentialHeight_IsbL-0100_RLatLon0.09_PT024H.grib2 2026-05-08 14:49 287K
20260508T12Z_MSC_RDPS_GeopotentialHeight_IsbL-0150_RLatLon0.09_PT024H.grib2 2026-05-08 14:49 227K
20260508T12Z_MSC_RDPS_GeopotentialHeight_IsbL-0175_RLatLon0.09_PT024H.grib2 2026-05-08 14:49 230K
20260508T12Z_MSC_RDPS_GeopotentialHeight_IsbL-0200_RLatLon0.09_PT024H.grib2 2026-05-08 14:49 233K
20260508T12Z_MSC_RDPS_GeopotentialHeight_IsbL-0225_RLatLon0.09_PT024H.grib2 2026-05-08 14:49 266K
20260508T12Z_MSC_RDPS_GeopotentialHeight_IsbL-0250_RLatLon0.09_PT024H.grib2 2026-05-08 14:49 268K
20260508T12Z_MSC_RDPS_GeopotentialHeight_IsbL-0275_RLatLon0.09_PT024H.grib2 2026-05-08 14:49 236K
20260508T12Z_MSC_RDPS_GeopotentialHeight_IsbL-0300_RLatLon0.09_PT024H.grib2 2026-05-08 14:49 237K
20260508T12Z_MSC_RDPS_GeopotentialHeight_IsbL-0350_RLatLon0.09_PT024H.grib2 2026-05-08 14:49 232K
20260508T12Z_MSC_RDPS_GeopotentialHeight_IsbL-0400_RLatLon0.09_PT024H.grib2 2026-05-08 14:49 228K
20260508T12Z_MSC_RDPS_GeopotentialHeight_IsbL-0450_RLatLon0.09_PT024H.grib2 2026-05-08 14:49 296K
20260508T12Z_MSC_RDPS_GeopotentialHeight_IsbL-0500_RLatLon0.09_PT024H.grib2 2026-05-08 14:49 290K
20260508T12Z_MSC_RDPS_GeopotentialHeight_IsbL-0550_RLatLon0.09_PT024H.grib2 2026-05-08 14:49 286K
20260508T12Z_MSC_RDPS_GeopotentialHeight_IsbL-0600_RLatLon0.09_PT024H.grib2 2026-05-08 14:49 284K
20260508T12Z_MSC_RDPS_GeopotentialHeight_IsbL-0650_RLatLon0.09_PT024H.grib2 2026-05-08 14:49 254K
20260508T12Z_MSC_RDPS_GeopotentialHeight_IsbL-0700_RLatLon0.09_PT024H.grib2 2026-05-08 14:49 254K
20260508T12Z_MSC_RDPS_GeopotentialHeight_IsbL-0750_RLatLon0.09_PT024H.grib2 2026-05-08 14:49 257K
20260508T12Z_MSC_RDPS_GeopotentialHeight_IsbL-0800_RLatLon0.09_PT024H.grib2 2026-05-08 14:49 266K
20260508T12Z_MSC_RDPS_GeopotentialHeight_IsbL-0850_RLatLon0.09_PT024H.grib2 2026-05-08 14:49 273K
20260508T12Z_MSC_RDPS_GeopotentialHeight_IsbL-0875_RLatLon0.09_PT024H.grib2 2026-05-08 14:49 275K
20260508T12Z_MSC_RDPS_GeopotentialHeight_IsbL-0900_RLatLon0.09_PT024H.grib2 2026-05-08 14:49 278K
20260508T12Z_MSC_RDPS_GeopotentialHeight_IsbL-0925_RLatLon0.09_PT024H.grib2 2026-05-08 14:49 281K
20260508T12Z_MSC_RDPS_GeopotentialHeight_IsbL-0950_RLatLon0.09_PT024H.grib2 2026-05-08 14:49 284K
20260508T12Z_MSC_RDPS_GeopotentialHeight_IsbL-0970_RLatLon0.09_PT024H.grib2 2026-05-08 14:49 289K
20260508T12Z_MSC_RDPS_GeopotentialHeight_IsbL-0985_RLatLon0.09_PT024H.grib2 2026-05-08 14:49 296K
20260508T12Z_MSC_RDPS_GeopotentialHeight_IsbL-1000_RLatLon0.09_PT024H.grib2 2026-05-08 14:49 304K
20260508T12Z_MSC_RDPS_GeopotentialHeight_IsbL-1015_RLatLon0.09_PT024H.grib2 2026-05-08 14:49 317K
20260508T12Z_MSC_RDPS_HighLowPressure_MSL_RLatLon0.09_PT024H.json 2026-05-08 14:39 22K
20260508T12Z_MSC_RDPS_Humidex_Sfc_RLatLon0.09_PT024H.grib2 2026-05-08 14:49 2.4M
20260508T12Z_MSC_RDPS_IcePellets-Accum12h_Sfc_RLatLon0.09_PT024H.grib2 2026-05-08 14:49 11K
20260508T12Z_MSC_RDPS_IcePellets-Accum1h_Sfc_RLatLon0.09_PT024H.grib2 2026-05-08 14:49 8.0K
20260508T12Z_MSC_RDPS_IcePellets-Accum24h_Sfc_RLatLon0.09_PT024H.grib2 2026-05-08 14:49 13K
20260508T12Z_MSC_RDPS_IcePellets-Accum3h_Sfc_RLatLon0.09_PT024H.grib2 2026-05-08 14:49 9.4K
20260508T12Z_MSC_RDPS_IcePellets-Accum6h_Sfc_RLatLon0.09_PT024H.grib2 2026-05-08 14:49 9.3K
20260508T12Z_MSC_RDPS_IcePellets-Accum_Sfc_RLatLon0.09_PT024H.grib2 2026-05-08 14:49 16K
20260508T12Z_MSC_RDPS_KIndex_Sfc_RLatLon0.09_PT024H.grib2 2026-05-08 14:49 2.5M
20260508T12Z_MSC_RDPS_LatentHeatNetFlux_Sfc_RLatLon0.09_PT024H.grib2 2026-05-08 14:49 341K
20260508T12Z_MSC_RDPS_LiftedIndex-MU-VT_IsbL-0500_RLatLon0.09_PT024H.grib2 2026-05-08 14:49 2.4M
20260508T12Z_MSC_RDPS_NetLongwaveRadiationFlux-Accum_Sfc_RLatLon0.09_PT024H.grib2 2026-05-08 14:49 588K
20260508T12Z_MSC_RDPS_NetShortwaveRadiationFlux-Accum_Sfc_RLatLon0.09_PT024H.grib2 2026-05-08 14:49 642K
20260508T12Z_MSC_RDPS_PlanetaryBoundaryLayerHeight_Sfc_RLatLon0.09_PT024H.grib2 2026-05-08 14:49 1.1M
20260508T12Z_MSC_RDPS_Precip-Accum12h_Sfc_RLatLon0.09_PT024H.grib2 2026-05-08 14:49 1.6M
20260508T12Z_MSC_RDPS_Precip-Accum1h_Sfc_RLatLon0.09_PT024H.grib2 2026-05-08 14:49 1.3M
20260508T12Z_MSC_RDPS_Precip-Accum24h_Sfc_RLatLon0.09_PT024H.grib2 2026-05-08 14:49 1.9M
20260508T12Z_MSC_RDPS_Precip-Accum3h_Sfc_RLatLon0.09_PT024H.grib2 2026-05-08 14:49 1.4M
20260508T12Z_MSC_RDPS_Precip-Accum6h_Sfc_RLatLon0.09_PT024H.grib2 2026-05-08 14:49 1.5M
20260508T12Z_MSC_RDPS_Precip-Accum_Sfc_RLatLon0.09_PT024H.grib2 2026-05-08 14:49 1.9M
20260508T12Z_MSC_RDPS_PrecipRate_Sfc_RLatLon0.09_PT024H.grib2 2026-05-08 14:49 171K
20260508T12Z_MSC_RDPS_PrecipType-Instant_Sfc_RLatLon0.09_PT024H.grib2 2026-05-08 14:49 603K
20260508T12Z_MSC_RDPS_Pressure-Trend3h_Sfc_RLatLon0.09_PT024H.grib2 2026-05-08 14:49 1.2M
20260508T12Z_MSC_RDPS_Pressure_MSL_RLatLon0.09_PT024H.grib2 2026-05-08 14:49 328K
20260508T12Z_MSC_RDPS_Pressure_PVU-1.5_RLatLon0.09_PT024H.grib2 2026-05-08 14:49 2.3M
20260508T12Z_MSC_RDPS_Pressure_PVU-1_RLatLon0.09_PT024H.grib2 2026-05-08 14:49 2.4M
20260508T12Z_MSC_RDPS_Pressure_PVU-2_RLatLon0.09_PT024H.grib2 2026-05-08 14:49 2.3M
20260508T12Z_MSC_RDPS_Pressure_Sfc_RLatLon0.09_PT024H.grib2 2026-05-08 14:49 501K
20260508T12Z_MSC_RDPS_RadiativeTemp_Sfc_RLatLon0.09_PT024H.grib2 2026-05-08 14:49 386K
20260508T12Z_MSC_RDPS_Rain-Accum12h_Sfc_RLatLon0.09_PT024H.grib2 2026-05-08 14:49 1.1M
20260508T12Z_MSC_RDPS_Rain-Accum1h_Sfc_RLatLon0.09_PT024H.grib2 2026-05-08 14:49 584K
20260508T12Z_MSC_RDPS_Rain-Accum24h_Sfc_RLatLon0.09_PT024H.grib2 2026-05-08 14:49 1.4M
20260508T12Z_MSC_RDPS_Rain-Accum3h_Sfc_RLatLon0.09_PT024H.grib2 2026-05-08 14:49 662K
20260508T12Z_MSC_RDPS_Rain-Accum6h_Sfc_RLatLon0.09_PT024H.grib2 2026-05-08 14:49 1.0M
20260508T12Z_MSC_RDPS_Rain-Accum_Sfc_RLatLon0.09_PT024H.grib2 2026-05-08 14:49 1.5M
20260508T12Z_MSC_RDPS_RelativeHumidity_AGL-2m_RLatLon0.09_PT024H.grib2 2026-05-08 14:49 1.0M
20260508T12Z_MSC_RDPS_RelativeHumidity_IsbL-0010_RLatLon0.09_PT024H.grib2 2026-05-08 14:49 447K
20260508T12Z_MSC_RDPS_RelativeHumidity_IsbL-0020_RLatLon0.09_PT024H.grib2 2026-05-08 14:49 572K
20260508T12Z_MSC_RDPS_RelativeHumidity_IsbL-0030_RLatLon0.09_PT024H.grib2 2026-05-08 14:49 636K
20260508T12Z_MSC_RDPS_RelativeHumidity_IsbL-0050_RLatLon0.09_PT024H.grib2 2026-05-08 14:49 360K
20260508T12Z_MSC_RDPS_RelativeHumidity_IsbL-0100_RLatLon0.09_PT024H.grib2 2026-05-08 14:49 283K
20260508T12Z_MSC_RDPS_RelativeHumidity_IsbL-0150_RLatLon0.09_PT024H.grib2 2026-05-08 14:49 408K
20260508T12Z_MSC_RDPS_RelativeHumidity_IsbL-0175_RLatLon0.09_PT024H.grib2 2026-05-08 14:49 465K
20260508T12Z_MSC_RDPS_RelativeHumidity_IsbL-0200_RLatLon0.09_PT024H.grib2 2026-05-08 14:49 540K
20260508T12Z_MSC_RDPS_RelativeHumidity_IsbL-0225_RLatLon0.09_PT024H.grib2 2026-05-08 14:49 610K
20260508T12Z_MSC_RDPS_RelativeHumidity_IsbL-0250_RLatLon0.09_PT024H.grib2 2026-05-08 14:49 689K
20260508T12Z_MSC_RDPS_RelativeHumidity_IsbL-0275_RLatLon0.09_PT024H.grib2 2026-05-08 14:49 716K
20260508T12Z_MSC_RDPS_RelativeHumidity_IsbL-0300_RLatLon0.09_PT024H.grib2 2026-05-08 14:49 751K
20260508T12Z_MSC_RDPS_RelativeHumidity_IsbL-0350_RLatLon0.09_PT024H.grib2 2026-05-08 14:49 762K
20260508T12Z_MSC_RDPS_RelativeHumidity_IsbL-0400_RLatLon0.09_PT024H.grib2 2026-05-08 14:49 776K
20260508T12Z_MSC_RDPS_RelativeHumidity_IsbL-0450_RLatLon0.09_PT024H.grib2 2026-05-08 14:49 782K
20260508T12Z_MSC_RDPS_RelativeHumidity_IsbL-0500_RLatLon0.09_PT024H.grib2 2026-05-08 14:49 798K
20260508T12Z_MSC_RDPS_RelativeHumidity_IsbL-0550_RLatLon0.09_PT024H.grib2 2026-05-08 14:49 815K
20260508T12Z_MSC_RDPS_RelativeHumidity_IsbL-0600_RLatLon0.09_PT024H.grib2 2026-05-08 14:49 840K
20260508T12Z_MSC_RDPS_RelativeHumidity_IsbL-0650_RLatLon0.09_PT024H.grib2 2026-05-08 14:49 856K
20260508T12Z_MSC_RDPS_RelativeHumidity_IsbL-0700_RLatLon0.09_PT024H.grib2 2026-05-08 14:49 882K
20260508T12Z_MSC_RDPS_RelativeHumidity_IsbL-0750_RLatLon0.09_PT024H.grib2 2026-05-08 14:49 930K
20260508T12Z_MSC_RDPS_RelativeHumidity_IsbL-0800_RLatLon0.09_PT024H.grib2 2026-05-08 14:49 1.0M
20260508T12Z_MSC_RDPS_RelativeHumidity_IsbL-0850_RLatLon0.09_PT024H.grib2 2026-05-08 14:49 1.1M
20260508T12Z_MSC_RDPS_RelativeHumidity_IsbL-0875_RLatLon0.09_PT024H.grib2 2026-05-08 14:49 1.1M
20260508T12Z_MSC_RDPS_RelativeHumidity_IsbL-0900_RLatLon0.09_PT024H.grib2 2026-05-08 14:49 1.1M
20260508T12Z_MSC_RDPS_RelativeHumidity_IsbL-0925_RLatLon0.09_PT024H.grib2 2026-05-08 14:49 1.1M
20260508T12Z_MSC_RDPS_RelativeHumidity_IsbL-0950_RLatLon0.09_PT024H.grib2 2026-05-08 14:49 1.1M
20260508T12Z_MSC_RDPS_RelativeHumidity_IsbL-0970_RLatLon0.09_PT024H.grib2 2026-05-08 14:49 1.1M
20260508T12Z_MSC_RDPS_RelativeHumidity_IsbL-0985_RLatLon0.09_PT024H.grib2 2026-05-08 14:49 1.0M
20260508T12Z_MSC_RDPS_RelativeHumidity_IsbL-1000_RLatLon0.09_PT024H.grib2 2026-05-08 14:49 1.0M
20260508T12Z_MSC_RDPS_RelativeHumidity_IsbL-1015_RLatLon0.09_PT024H.grib2 2026-05-08 14:49 1.0M
20260508T12Z_MSC_RDPS_Runoff-Accum_Sfc_RLatLon0.09_PT024H.grib2 2026-05-08 14:49 34K
20260508T12Z_MSC_RDPS_SWEATIndex_Sfc_RLatLon0.09_PT024H.grib2 2026-05-08 14:49 2.4M
20260508T12Z_MSC_RDPS_SeeingIndex_EAtm_RLatLon0.09_PT024H.grib2 2026-05-08 14:49 1.0M
20260508T12Z_MSC_RDPS_SensibleHeatNetFlux_Sfc_RLatLon0.09_PT024H.grib2 2026-05-08 14:49 229K
20260508T12Z_MSC_RDPS_ShowalterIndex_IsbL-0500_RLatLon0.09_PT024H.grib2 2026-05-08 14:49 2.6M
20260508T12Z_MSC_RDPS_SkyTransparencyIndex_EAtm_RLatLon0.09_PT024H.grib2 2026-05-08 14:49 678K
20260508T12Z_MSC_RDPS_Snow-Accum12h_Sfc_RLatLon0.09_PT024H.grib2 2026-05-08 14:49 506K
20260508T12Z_MSC_RDPS_Snow-Accum1h_Sfc_RLatLon0.09_PT024H.grib2 2026-05-08 14:49 387K
20260508T12Z_MSC_RDPS_Snow-Accum24h_Sfc_RLatLon0.09_PT024H.grib2 2026-05-08 14:49 585K
20260508T12Z_MSC_RDPS_Snow-Accum3h_Sfc_RLatLon0.09_PT024H.grib2 2026-05-08 14:49 372K
20260508T12Z_MSC_RDPS_Snow-Accum6h_Sfc_RLatLon0.09_PT024H.grib2 2026-05-08 14:49 470K
20260508T12Z_MSC_RDPS_Snow-Accum_Sfc_RLatLon0.09_PT024H.grib2 2026-05-08 14:49 648K
20260508T12Z_MSC_RDPS_SnowDensity_Sfc_RLatLon0.09_PT024H.grib2 2026-05-08 14:49 168K
20260508T12Z_MSC_RDPS_SnowDepth_Sfc_RLatLon0.09_PT024H.grib2 2026-05-08 14:49 622K
20260508T12Z_MSC_RDPS_SoilTemp_DBS-0to10cm_RLatLon0.09_PT024H.grib2 2026-05-08 14:49 222K
20260508T12Z_MSC_RDPS_SoilTemp_Sfc_RLatLon0.09_PT024H.grib2 2026-05-08 14:49 265K
20260508T12Z_MSC_RDPS_SoilVolumetricIceContent_Sfc_RLatLon0.09_PT024H.grib2 2026-05-08 14:49 145K
20260508T12Z_MSC_RDPS_SoilVolumetricWaterContent_DBS-0to10cm_RLatLon0.09_PT024H.grib2 2026-05-08 14:49 288K
20260508T12Z_MSC_RDPS_SoilVolumetricWaterContent_DBS-0to1cm_RLatLon0.09_PT024H.grib2 2026-05-08 14:49 341K
20260508T12Z_MSC_RDPS_SpecificHumidity_AGL-120m_RLatLon0.09_PT024H.grib2 2026-05-08 14:49 499K
20260508T12Z_MSC_RDPS_SpecificHumidity_AGL-2m_RLatLon0.09_PT024H.grib2 2026-05-08 14:49 670K
20260508T12Z_MSC_RDPS_SpecificHumidity_AGL-40m_RLatLon0.09_PT024H.grib2 2026-05-08 14:49 505K
20260508T12Z_MSC_RDPS_SpecificHumidity_AGL-80m_RLatLon0.09_PT024H.grib2 2026-05-08 14:49 501K
20260508T12Z_MSC_RDPS_SpecificHumidity_IsbL-0001_RLatLon0.09_PT024H.grib2 2026-05-08 14:49 361K
20260508T12Z_MSC_RDPS_SpecificHumidity_IsbL-0005_RLatLon0.09_PT024H.grib2 2026-05-08 14:49 376K
20260508T12Z_MSC_RDPS_SpecificHumidity_IsbL-0010_RLatLon0.09_PT024H.grib2 2026-05-08 14:49 404K
20260508T12Z_MSC_RDPS_SpecificHumidity_IsbL-0020_RLatLon0.09_PT024H.grib2 2026-05-08 14:49 384K
20260508T12Z_MSC_RDPS_SpecificHumidity_IsbL-0030_RLatLon0.09_PT024H.grib2 2026-05-08 14:49 376K
20260508T12Z_MSC_RDPS_SpecificHumidity_IsbL-0050_RLatLon0.09_PT024H.grib2 2026-05-08 14:49 375K
20260508T12Z_MSC_RDPS_SpecificHumidity_IsbL-0100_RLatLon0.09_PT024H.grib2 2026-05-08 14:49 420K
20260508T12Z_MSC_RDPS_SpecificHumidity_IsbL-0150_RLatLon0.09_PT024H.grib2 2026-05-08 14:49 454K
20260508T12Z_MSC_RDPS_SpecificHumidity_IsbL-0175_RLatLon0.09_PT024H.grib2 2026-05-08 14:49 533K
20260508T12Z_MSC_RDPS_SpecificHumidity_IsbL-0200_RLatLon0.09_PT024H.grib2 2026-05-08 14:49 448K
20260508T12Z_MSC_RDPS_SpecificHumidity_IsbL-0225_RLatLon0.09_PT024H.grib2 2026-05-08 14:49 453K
20260508T12Z_MSC_RDPS_SpecificHumidity_IsbL-0250_RLatLon0.09_PT024H.grib2 2026-05-08 14:49 523K
20260508T12Z_MSC_RDPS_SpecificHumidity_IsbL-0275_RLatLon0.09_PT024H.grib2 2026-05-08 14:49 481K
20260508T12Z_MSC_RDPS_SpecificHumidity_IsbL-0300_RLatLon0.09_PT024H.grib2 2026-05-08 14:49 450K
20260508T12Z_MSC_RDPS_SpecificHumidity_IsbL-0350_RLatLon0.09_PT024H.grib2 2026-05-08 14:49 439K
20260508T12Z_MSC_RDPS_SpecificHumidity_IsbL-0400_RLatLon0.09_PT024H.grib2 2026-05-08 14:49 518K
20260508T12Z_MSC_RDPS_SpecificHumidity_IsbL-0450_RLatLon0.09_PT024H.grib2 2026-05-08 14:49 453K
20260508T12Z_MSC_RDPS_SpecificHumidity_IsbL-0500_RLatLon0.09_PT024H.grib2 2026-05-08 14:49 504K
20260508T12Z_MSC_RDPS_SpecificHumidity_IsbL-0550_RLatLon0.09_PT024H.grib2 2026-05-08 14:49 575K
20260508T12Z_MSC_RDPS_SpecificHumidity_IsbL-0600_RLatLon0.09_PT024H.grib2 2026-05-08 14:49 631K
20260508T12Z_MSC_RDPS_SpecificHumidity_IsbL-0650_RLatLon0.09_PT024H.grib2 2026-05-08 14:49 551K
20260508T12Z_MSC_RDPS_SpecificHumidity_IsbL-0700_RLatLon0.09_PT024H.grib2 2026-05-08 14:49 598K
20260508T12Z_MSC_RDPS_SpecificHumidity_IsbL-0750_RLatLon0.09_PT024H.grib2 2026-05-08 14:49 660K
20260508T12Z_MSC_RDPS_SpecificHumidity_IsbL-0800_RLatLon0.09_PT024H.grib2 2026-05-08 14:49 754K
20260508T12Z_MSC_RDPS_SpecificHumidity_IsbL-0850_RLatLon0.09_PT024H.grib2 2026-05-08 14:49 825K
20260508T12Z_MSC_RDPS_SpecificHumidity_IsbL-0875_RLatLon0.09_PT024H.grib2 2026-05-08 14:49 844K
20260508T12Z_MSC_RDPS_SpecificHumidity_IsbL-0900_RLatLon0.09_PT024H.grib2 2026-05-08 14:49 850K
20260508T12Z_MSC_RDPS_SpecificHumidity_IsbL-0925_RLatLon0.09_PT024H.grib2 2026-05-08 14:49 850K
20260508T12Z_MSC_RDPS_SpecificHumidity_IsbL-0950_RLatLon0.09_PT024H.grib2 2026-05-08 14:49 848K
20260508T12Z_MSC_RDPS_SpecificHumidity_IsbL-0970_RLatLon0.09_PT024H.grib2 2026-05-08 14:49 702K
20260508T12Z_MSC_RDPS_SpecificHumidity_IsbL-0985_RLatLon0.09_PT024H.grib2 2026-05-08 14:49 694K
20260508T12Z_MSC_RDPS_SpecificHumidity_IsbL-1000_RLatLon0.09_PT024H.grib2 2026-05-08 14:49 691K
20260508T12Z_MSC_RDPS_SpecificHumidity_IsbL-1015_RLatLon0.09_PT024H.grib2 2026-05-08 14:49 682K
20260508T12Z_MSC_RDPS_SpecificHumidity_Sfc_RLatLon0.09_PT024H.grib2 2026-05-08 14:49 304K
20260508T12Z_MSC_RDPS_StormRelativeHelicity_EtaL-10000_RLatLon0.09_PT024H.grib2 2026-05-08 14:49 1.1M
20260508T12Z_MSC_RDPS_StormSeverityIndex_EtaL-10000_RLatLon0.09_PT024H.grib2 2026-05-08 14:49 1.2M
20260508T12Z_MSC_RDPS_Thickness_IsbL-0850to0700_RLatLon0.09_PT024H.grib2 2026-05-08 14:49 250K
20260508T12Z_MSC_RDPS_Thickness_IsbL-1000to0500_RLatLon0.09_PT024H.grib2 2026-05-08 14:49 195K
20260508T12Z_MSC_RDPS_Thickness_IsbL-1000to0850_RLatLon0.09_PT024H.grib2 2026-05-08 14:49 263K
20260508T12Z_MSC_RDPS_TotalCloudCover_Sfc_RLatLon0.09_PT024H.grib2 2026-05-08 14:49 662K
20260508T12Z_MSC_RDPS_TotalTotalsIndex_Sfc_RLatLon0.09_PT024H.grib2 2026-05-08 14:49 2.4M
20260508T12Z_MSC_RDPS_UVIndex-ClearSky_Sfc_RLatLon0.09_PT024H.grib2 2026-05-08 14:49 150K
20260508T12Z_MSC_RDPS_UVIndex_Sfc_RLatLon0.09_PT024H.grib2 2026-05-08 14:49 357K
20260508T12Z_MSC_RDPS_UpwardLongwaveRadiationFlux_NTAtm_RLatLon0.09_PT024H.grib2 2026-05-08 14:49 486K
20260508T12Z_MSC_RDPS_UpwardShortwaveRadiationFlux_NTAtm_RLatLon0.09_PT024H.grib2 2026-05-08 14:49 316K
20260508T12Z_MSC_RDPS_VerticalVelocity_IsbL-0250_RLatLon0.09_PT024H.grib2 2026-05-08 14:49 552K
20260508T12Z_MSC_RDPS_VerticalVelocity_IsbL-0500_RLatLon0.09_PT024H.grib2 2026-05-08 14:49 535K
20260508T12Z_MSC_RDPS_VerticalVelocity_IsbL-0700_RLatLon0.09_PT024H.grib2 2026-05-08 14:49 594K
20260508T12Z_MSC_RDPS_VerticalVelocity_IsbL-0850_RLatLon0.09_PT024H.grib2 2026-05-08 14:49 706K
20260508T12Z_MSC_RDPS_VerticalWindShear_EtaL-6500_RLatLon0.09_PT024H.grib2 2026-05-08 14:49 1.2M
20260508T12Z_MSC_RDPS_WindChill_Sfc_RLatLon0.09_PT024H.grib2 2026-05-08 14:49 1.2M
20260508T12Z_MSC_RDPS_WindDir_AGL-10m_RLatLon0.09_PT024H.grib2 2026-05-08 14:49 1.0M
20260508T12Z_MSC_RDPS_WindDir_AGL-120m_RLatLon0.09_PT024H.grib2 2026-05-08 14:49 619K
20260508T12Z_MSC_RDPS_WindDir_AGL-40m_RLatLon0.09_PT024H.grib2 2026-05-08 14:49 653K
20260508T12Z_MSC_RDPS_WindDir_AGL-80m_RLatLon0.09_PT024H.grib2 2026-05-08 14:49 633K
20260508T12Z_MSC_RDPS_WindDir_IsbL-0001_RLatLon0.09_PT024H.grib2 2026-05-08 14:49 288K
20260508T12Z_MSC_RDPS_WindDir_IsbL-0005_RLatLon0.09_PT024H.grib2 2026-05-08 14:49 379K
20260508T12Z_MSC_RDPS_WindDir_IsbL-0010_RLatLon0.09_PT024H.grib2 2026-05-08 14:49 379K
20260508T12Z_MSC_RDPS_WindDir_IsbL-0020_RLatLon0.09_PT024H.grib2 2026-05-08 14:49 427K
20260508T12Z_MSC_RDPS_WindDir_IsbL-0030_RLatLon0.09_PT024H.grib2 2026-05-08 14:49 411K
20260508T12Z_MSC_RDPS_WindDir_IsbL-0050_RLatLon0.09_PT024H.grib2 2026-05-08 14:49 441K
20260508T12Z_MSC_RDPS_WindDir_IsbL-0100_RLatLon0.09_PT024H.grib2 2026-05-08 14:49 416K
20260508T12Z_MSC_RDPS_WindDir_IsbL-0150_RLatLon0.09_PT024H.grib2 2026-05-08 14:49 427K
20260508T12Z_MSC_RDPS_WindDir_IsbL-0175_RLatLon0.09_PT024H.grib2 2026-05-08 14:49 447K
20260508T12Z_MSC_RDPS_WindDir_IsbL-0200_RLatLon0.09_PT024H.grib2 2026-05-08 14:49 463K
20260508T12Z_MSC_RDPS_WindDir_IsbL-0225_RLatLon0.09_PT024H.grib2 2026-05-08 14:49 465K
20260508T12Z_MSC_RDPS_WindDir_IsbL-0250_RLatLon0.09_PT024H.grib2 2026-05-08 14:49 465K
20260508T12Z_MSC_RDPS_WindDir_IsbL-0275_RLatLon0.09_PT024H.grib2 2026-05-08 14:49 482K
20260508T12Z_MSC_RDPS_WindDir_IsbL-0300_RLatLon0.09_PT024H.grib2 2026-05-08 14:49 481K
20260508T12Z_MSC_RDPS_WindDir_IsbL-0350_RLatLon0.09_PT024H.grib2 2026-05-08 14:49 506K
20260508T12Z_MSC_RDPS_WindDir_IsbL-0400_RLatLon0.09_PT024H.grib2 2026-05-08 14:49 523K
20260508T12Z_MSC_RDPS_WindDir_IsbL-0450_RLatLon0.09_PT024H.grib2 2026-05-08 14:49 540K
20260508T12Z_MSC_RDPS_WindDir_IsbL-0500_RLatLon0.09_PT024H.grib2 2026-05-08 14:49 567K
20260508T12Z_MSC_RDPS_WindDir_IsbL-0550_RLatLon0.09_PT024H.grib2 2026-05-08 14:49 576K
20260508T12Z_MSC_RDPS_WindDir_IsbL-0600_RLatLon0.09_PT024H.grib2 2026-05-08 14:49 592K
20260508T12Z_MSC_RDPS_WindDir_IsbL-0650_RLatLon0.09_PT024H.grib2 2026-05-08 14:49 629K
20260508T12Z_MSC_RDPS_WindDir_IsbL-0700_RLatLon0.09_PT024H.grib2 2026-05-08 14:49 671K
20260508T12Z_MSC_RDPS_WindDir_IsbL-0750_RLatLon0.09_PT024H.grib2 2026-05-08 14:49 723K
20260508T12Z_MSC_RDPS_WindDir_IsbL-0800_RLatLon0.09_PT024H.grib2 2026-05-08 14:49 788K
20260508T12Z_MSC_RDPS_WindDir_IsbL-0850_RLatLon0.09_PT024H.grib2 2026-05-08 14:49 859K
20260508T12Z_MSC_RDPS_WindDir_IsbL-0875_RLatLon0.09_PT024H.grib2 2026-05-08 14:49 887K
20260508T12Z_MSC_RDPS_WindDir_IsbL-0900_RLatLon0.09_PT024H.grib2 2026-05-08 14:49 905K
20260508T12Z_MSC_RDPS_WindDir_IsbL-0925_RLatLon0.09_PT024H.grib2 2026-05-08 14:49 919K
20260508T12Z_MSC_RDPS_WindDir_IsbL-0950_RLatLon0.09_PT024H.grib2 2026-05-08 14:49 928K
20260508T12Z_MSC_RDPS_WindDir_IsbL-0970_RLatLon0.09_PT024H.grib2 2026-05-08 14:49 934K
20260508T12Z_MSC_RDPS_WindDir_IsbL-0985_RLatLon0.09_PT024H.grib2 2026-05-08 14:49 945K
20260508T12Z_MSC_RDPS_WindDir_IsbL-1000_RLatLon0.09_PT024H.grib2 2026-05-08 14:49 962K
20260508T12Z_MSC_RDPS_WindDir_IsbL-1015_RLatLon0.09_PT024H.grib2 2026-05-08 14:49 1.0M
20260508T12Z_MSC_RDPS_WindGust-Max_AGL-10m_RLatLon0.09_PT024H.grib2 2026-05-08 14:49 1.0M
20260508T12Z_MSC_RDPS_WindGust-Min_AGL-10m_RLatLon0.09_PT024H.grib2 2026-05-08 14:49 1.0M
20260508T12Z_MSC_RDPS_WindGust_AGL-10m_RLatLon0.09_PT024H.grib2 2026-05-08 14:49 1.0M
20260508T12Z_MSC_RDPS_WindSpeed_AGL-10m_RLatLon0.09_PT024H.grib2 2026-05-08 14:49 855K
20260508T12Z_MSC_RDPS_WindSpeed_AGL-120m_RLatLon0.09_PT024H.grib2 2026-05-08 14:49 554K
20260508T12Z_MSC_RDPS_WindSpeed_AGL-40m_RLatLon0.09_PT024H.grib2 2026-05-08 14:49 554K
20260508T12Z_MSC_RDPS_WindSpeed_AGL-80m_RLatLon0.09_PT024H.grib2 2026-05-08 14:49 554K
20260508T12Z_MSC_RDPS_WindSpeed_IsbL-0001_RLatLon0.09_PT024H.grib2 2026-05-08 14:49 252K
20260508T12Z_MSC_RDPS_WindSpeed_IsbL-0005_RLatLon0.09_PT024H.grib2 2026-05-08 14:49 295K
20260508T12Z_MSC_RDPS_WindSpeed_IsbL-0010_RLatLon0.09_PT024H.grib2 2026-05-08 14:49 400K
20260508T12Z_MSC_RDPS_WindSpeed_IsbL-0020_RLatLon0.09_PT024H.grib2 2026-05-08 14:49 324K
20260508T12Z_MSC_RDPS_WindSpeed_IsbL-0030_RLatLon0.09_PT024H.grib2 2026-05-08 14:49 321K
20260508T12Z_MSC_RDPS_WindSpeed_IsbL-0050_RLatLon0.09_PT024H.grib2 2026-05-08 14:49 346K
20260508T12Z_MSC_RDPS_WindSpeed_IsbL-0100_RLatLon0.09_PT024H.grib2 2026-05-08 14:49 439K
20260508T12Z_MSC_RDPS_WindSpeed_IsbL-0150_RLatLon0.09_PT024H.grib2 2026-05-08 14:49 376K
20260508T12Z_MSC_RDPS_WindSpeed_IsbL-0175_RLatLon0.09_PT024H.grib2 2026-05-08 14:49 422K
20260508T12Z_MSC_RDPS_WindSpeed_IsbL-0200_RLatLon0.09_PT024H.grib2 2026-05-08 14:49 439K
20260508T12Z_MSC_RDPS_WindSpeed_IsbL-0225_RLatLon0.09_PT024H.grib2 2026-05-08 14:49 448K
20260508T12Z_MSC_RDPS_WindSpeed_IsbL-0250_RLatLon0.09_PT024H.grib2 2026-05-08 14:49 452K
20260508T12Z_MSC_RDPS_WindSpeed_IsbL-0275_RLatLon0.09_PT024H.grib2 2026-05-08 14:49 469K
20260508T12Z_MSC_RDPS_WindSpeed_IsbL-0300_RLatLon0.09_PT024H.grib2 2026-05-08 14:49 464K
20260508T12Z_MSC_RDPS_WindSpeed_IsbL-0350_RLatLon0.09_PT024H.grib2 2026-05-08 14:49 475K
20260508T12Z_MSC_RDPS_WindSpeed_IsbL-0400_RLatLon0.09_PT024H.grib2 2026-05-08 14:49 459K
20260508T12Z_MSC_RDPS_WindSpeed_IsbL-0450_RLatLon0.09_PT024H.grib2 2026-05-08 14:49 460K
20260508T12Z_MSC_RDPS_WindSpeed_IsbL-0500_RLatLon0.09_PT024H.grib2 2026-05-08 14:49 580K
20260508T12Z_MSC_RDPS_WindSpeed_IsbL-0550_RLatLon0.09_PT024H.grib2 2026-05-08 14:49 581K
20260508T12Z_MSC_RDPS_WindSpeed_IsbL-0600_RLatLon0.09_PT024H.grib2 2026-05-08 14:49 636K
20260508T12Z_MSC_RDPS_WindSpeed_IsbL-0650_RLatLon0.09_PT024H.grib2 2026-05-08 14:49 657K
20260508T12Z_MSC_RDPS_WindSpeed_IsbL-0700_RLatLon0.09_PT024H.grib2 2026-05-08 14:49 682K
20260508T12Z_MSC_RDPS_WindSpeed_IsbL-0750_RLatLon0.09_PT024H.grib2 2026-05-08 14:49 717K
20260508T12Z_MSC_RDPS_WindSpeed_IsbL-0800_RLatLon0.09_PT024H.grib2 2026-05-08 14:49 772K
20260508T12Z_MSC_RDPS_WindSpeed_IsbL-0850_RLatLon0.09_PT024H.grib2 2026-05-08 14:49 830K
20260508T12Z_MSC_RDPS_WindSpeed_IsbL-0875_RLatLon0.09_PT024H.grib2 2026-05-08 14:49 848K
20260508T12Z_MSC_RDPS_WindSpeed_IsbL-0900_RLatLon0.09_PT024H.grib2 2026-05-08 14:49 864K
20260508T12Z_MSC_RDPS_WindSpeed_IsbL-0925_RLatLon0.09_PT024H.grib2 2026-05-08 14:49 876K
20260508T12Z_MSC_RDPS_WindSpeed_IsbL-0950_RLatLon0.09_PT024H.grib2 2026-05-08 14:49 878K
20260508T12Z_MSC_RDPS_WindSpeed_IsbL-0970_RLatLon0.09_PT024H.grib2 2026-05-08 14:49 873K
20260508T12Z_MSC_RDPS_WindSpeed_IsbL-0985_RLatLon0.09_PT024H.grib2 2026-05-08 14:49 867K
20260508T12Z_MSC_RDPS_WindSpeed_IsbL-1000_RLatLon0.09_PT024H.grib2 2026-05-08 14:49 863K
20260508T12Z_MSC_RDPS_WindSpeed_IsbL-1015_RLatLon0.09_PT024H.grib2 2026-05-08 14:49 855K
20260508T12Z_MSC_RDPS_WindU_AGL-10m_RLatLon0.09_PT024H.grib2 2026-05-08 14:49 438K
20260508T12Z_MSC_RDPS_WindU_AGL-120m_RLatLon0.09_PT024H.grib2 2026-05-08 14:49 428K
20260508T12Z_MSC_RDPS_WindU_AGL-40m_RLatLon0.09_PT024H.grib2 2026-05-08 14:49 548K
20260508T12Z_MSC_RDPS_WindU_AGL-80m_RLatLon0.09_PT024H.grib2 2026-05-08 14:49 429K
20260508T12Z_MSC_RDPS_WindU_IsbL-0001_RLatLon0.09_PT024H.grib2 2026-05-08 14:49 294K
20260508T12Z_MSC_RDPS_WindU_IsbL-0005_RLatLon0.09_PT024H.grib2 2026-05-08 14:49 331K
20260508T12Z_MSC_RDPS_WindU_IsbL-0010_RLatLon0.09_PT024H.grib2 2026-05-08 14:49 298K
20260508T12Z_MSC_RDPS_WindU_IsbL-0020_RLatLon0.09_PT024H.grib2 2026-05-08 14:49 314K
20260508T12Z_MSC_RDPS_WindU_IsbL-0030_RLatLon0.09_PT024H.grib2 2026-05-08 14:49 311K
20260508T12Z_MSC_RDPS_WindU_IsbL-0050_RLatLon0.09_PT024H.grib2 2026-05-08 14:49 341K
20260508T12Z_MSC_RDPS_WindU_IsbL-0100_RLatLon0.09_PT024H.grib2 2026-05-08 14:49 433K
20260508T12Z_MSC_RDPS_WindU_IsbL-0150_RLatLon0.09_PT024H.grib2 2026-05-08 14:49 395K
20260508T12Z_MSC_RDPS_WindU_IsbL-0175_RLatLon0.09_PT024H.grib2 2026-05-08 14:49 417K
20260508T12Z_MSC_RDPS_WindU_IsbL-0200_RLatLon0.09_PT024H.grib2 2026-05-08 14:49 434K
20260508T12Z_MSC_RDPS_WindU_IsbL-0225_RLatLon0.09_PT024H.grib2 2026-05-08 14:49 441K
20260508T12Z_MSC_RDPS_WindU_IsbL-0250_RLatLon0.09_PT024H.grib2 2026-05-08 14:49 342K
20260508T12Z_MSC_RDPS_WindU_IsbL-0275_RLatLon0.09_PT024H.grib2 2026-05-08 14:49 356K
20260508T12Z_MSC_RDPS_WindU_IsbL-0300_RLatLon0.09_PT024H.grib2 2026-05-08 14:49 351K
20260508T12Z_MSC_RDPS_WindU_IsbL-0350_RLatLon0.09_PT024H.grib2 2026-05-08 14:49 359K
20260508T12Z_MSC_RDPS_WindU_IsbL-0400_RLatLon0.09_PT024H.grib2 2026-05-08 14:49 362K
20260508T12Z_MSC_RDPS_WindU_IsbL-0450_RLatLon0.09_PT024H.grib2 2026-05-08 14:49 465K
20260508T12Z_MSC_RDPS_WindU_IsbL-0500_RLatLon0.09_PT024H.grib2 2026-05-08 14:49 468K
20260508T12Z_MSC_RDPS_WindU_IsbL-0550_RLatLon0.09_PT024H.grib2 2026-05-08 14:49 453K
20260508T12Z_MSC_RDPS_WindU_IsbL-0600_RLatLon0.09_PT024H.grib2 2026-05-08 14:49 463K
20260508T12Z_MSC_RDPS_WindU_IsbL-0650_RLatLon0.09_PT024H.grib2 2026-05-08 14:49 482K
20260508T12Z_MSC_RDPS_WindU_IsbL-0700_RLatLon0.09_PT024H.grib2 2026-05-08 14:49 505K
20260508T12Z_MSC_RDPS_WindU_IsbL-0750_RLatLon0.09_PT024H.grib2 2026-05-08 14:49 536K
20260508T12Z_MSC_RDPS_WindU_IsbL-0800_RLatLon0.09_PT024H.grib2 2026-05-08 14:49 584K
20260508T12Z_MSC_RDPS_WindU_IsbL-0850_RLatLon0.09_PT024H.grib2 2026-05-08 14:49 636K
20260508T12Z_MSC_RDPS_WindU_IsbL-0875_RLatLon0.09_PT024H.grib2 2026-05-08 14:49 651K
20260508T12Z_MSC_RDPS_WindU_IsbL-0900_RLatLon0.09_PT024H.grib2 2026-05-08 14:49 663K
20260508T12Z_MSC_RDPS_WindU_IsbL-0925_RLatLon0.09_PT024H.grib2 2026-05-08 14:49 671K
20260508T12Z_MSC_RDPS_WindU_IsbL-0950_RLatLon0.09_PT024H.grib2 2026-05-08 14:49 670K
20260508T12Z_MSC_RDPS_WindU_IsbL-0970_RLatLon0.09_PT024H.grib2 2026-05-08 14:49 664K
20260508T12Z_MSC_RDPS_WindU_IsbL-0985_RLatLon0.09_PT024H.grib2 2026-05-08 14:49 801K
20260508T12Z_MSC_RDPS_WindU_IsbL-1000_RLatLon0.09_PT024H.grib2 2026-05-08 14:49 797K
20260508T12Z_MSC_RDPS_WindU_IsbL-1015_RLatLon0.09_PT024H.grib2 2026-05-08 14:49 792K
20260508T12Z_MSC_RDPS_WindV_AGL-10m_RLatLon0.09_PT024H.grib2 2026-05-08 14:49 437K
20260508T12Z_MSC_RDPS_WindV_AGL-120m_RLatLon0.09_PT024H.grib2 2026-05-08 14:49 547K
20260508T12Z_MSC_RDPS_WindV_AGL-40m_RLatLon0.09_PT024H.grib2 2026-05-08 14:49 547K
20260508T12Z_MSC_RDPS_WindV_AGL-80m_RLatLon0.09_PT024H.grib2 2026-05-08 14:49 547K
20260508T12Z_MSC_RDPS_WindV_IsbL-0001_RLatLon0.09_PT024H.grib2 2026-05-08 14:49 245K
20260508T12Z_MSC_RDPS_WindV_IsbL-0005_RLatLon0.09_PT024H.grib2 2026-05-08 14:49 288K
20260508T12Z_MSC_RDPS_WindV_IsbL-0010_RLatLon0.09_PT024H.grib2 2026-05-08 14:49 299K
20260508T12Z_MSC_RDPS_WindV_IsbL-0020_RLatLon0.09_PT024H.grib2 2026-05-08 14:49 315K
20260508T12Z_MSC_RDPS_WindV_IsbL-0030_RLatLon0.09_PT024H.grib2 2026-05-08 14:49 315K
20260508T12Z_MSC_RDPS_WindV_IsbL-0050_RLatLon0.09_PT024H.grib2 2026-05-08 14:49 342K
20260508T12Z_MSC_RDPS_WindV_IsbL-0100_RLatLon0.09_PT024H.grib2 2026-05-08 14:49 334K
20260508T12Z_MSC_RDPS_WindV_IsbL-0150_RLatLon0.09_PT024H.grib2 2026-05-08 14:49 391K
20260508T12Z_MSC_RDPS_WindV_IsbL-0175_RLatLon0.09_PT024H.grib2 2026-05-08 14:49 414K
20260508T12Z_MSC_RDPS_WindV_IsbL-0200_RLatLon0.09_PT024H.grib2 2026-05-08 14:49 334K
20260508T12Z_MSC_RDPS_WindV_IsbL-0225_RLatLon0.09_PT024H.grib2 2026-05-08 14:49 339K
20260508T12Z_MSC_RDPS_WindV_IsbL-0250_RLatLon0.09_PT024H.grib2 2026-05-08 14:49 367K
20260508T12Z_MSC_RDPS_WindV_IsbL-0275_RLatLon0.09_PT024H.grib2 2026-05-08 14:49 355K
20260508T12Z_MSC_RDPS_WindV_IsbL-0300_RLatLon0.09_PT024H.grib2 2026-05-08 14:49 351K
20260508T12Z_MSC_RDPS_WindV_IsbL-0350_RLatLon0.09_PT024H.grib2 2026-05-08 14:49 359K
20260508T12Z_MSC_RDPS_WindV_IsbL-0400_RLatLon0.09_PT024H.grib2 2026-05-08 14:49 359K
20260508T12Z_MSC_RDPS_WindV_IsbL-0450_RLatLon0.09_PT024H.grib2 2026-05-08 14:49 461K
20260508T12Z_MSC_RDPS_WindV_IsbL-0500_RLatLon0.09_PT024H.grib2 2026-05-08 14:49 463K
20260508T12Z_MSC_RDPS_WindV_IsbL-0550_RLatLon0.09_PT024H.grib2 2026-05-08 14:49 466K
20260508T12Z_MSC_RDPS_WindV_IsbL-0600_RLatLon0.09_PT024H.grib2 2026-05-08 14:49 475K
20260508T12Z_MSC_RDPS_WindV_IsbL-0650_RLatLon0.09_PT024H.grib2 2026-05-08 14:49 477K
20260508T12Z_MSC_RDPS_WindV_IsbL-0700_RLatLon0.09_PT024H.grib2 2026-05-08 14:49 500K
20260508T12Z_MSC_RDPS_WindV_IsbL-0750_RLatLon0.09_PT024H.grib2 2026-05-08 14:49 531K
20260508T12Z_MSC_RDPS_WindV_IsbL-0800_RLatLon0.09_PT024H.grib2 2026-05-08 14:49 580K
20260508T12Z_MSC_RDPS_WindV_IsbL-0850_RLatLon0.09_PT024H.grib2 2026-05-08 14:49 631K
20260508T12Z_MSC_RDPS_WindV_IsbL-0875_RLatLon0.09_PT024H.grib2 2026-05-08 14:49 648K
20260508T12Z_MSC_RDPS_WindV_IsbL-0900_RLatLon0.09_PT024H.grib2 2026-05-08 14:49 661K
20260508T12Z_MSC_RDPS_WindV_IsbL-0925_RLatLon0.09_PT024H.grib2 2026-05-08 14:49 670K
20260508T12Z_MSC_RDPS_WindV_IsbL-0950_RLatLon0.09_PT024H.grib2 2026-05-08 14:49 670K
20260508T12Z_MSC_RDPS_WindV_IsbL-0970_RLatLon0.09_PT024H.grib2 2026-05-08 14:49 807K
20260508T12Z_MSC_RDPS_WindV_IsbL-0985_RLatLon0.09_PT024H.grib2 2026-05-08 14:49 801K
20260508T12Z_MSC_RDPS_WindV_IsbL-1000_RLatLon0.09_PT024H.grib2 2026-05-08 14:49 797K
20260508T12Z_MSC_RDPS_WindV_IsbL-1015_RLatLon0.09_PT024H.grib2 2026-05-08 14:49 837K